Погода в Корчуле

Хорватия     42°57′33″N   17°08′05″E
темп.,
°C
ветер,
м/с
пор.,
м/с
влажн.,
%
обл.,
%
осадки,
мм/ч
давл.,
гПа
погр.,
м
17 августа, ср
ср1723:00+25вюв22720 0.0 101379
02:00+24всв32680 0.0 1013107
05:00+23всв33671 0.0 1012126
08:00+23всв22650 0.0 1013137
11:00+24зюз11610 0.0 1014110
14:00+26з33640 0.0 1013233
17:00+26зсз34710 0.0 1013250
20:00+25сз22760 0.0 101222
18 августа, чт
чт1823:00+25св11740 0.0 101313
02:00+25св22710 0.0 101250
05:00+24всв33680 0.0 101274
08:00+25всв33660 0.0 1012103
11:00+26ю22630 0.0 101257
14:00+25ююв22740 0.0 101180
17:00+25вюв11724 0.0 101048
20:00+27св33620 0.0 100819
19 августа, пт
пт1923:00+26св22630 0.3 100913
02:00+26в55620 0.3 100848
05:00+26всв44605 0.0 100737
08:00+26всв4461100 0.0 100845
11:00+27ююв6116799 0.0 1008180
14:00+25ю23856 0.0 100983
17:00+26юв34791 0.1 100861
20:00+26вюв44764 0.2 100841
20 августа, сб
сб2023:00+25в44760 0.0 100961
02:00+24всв55780 0.0 1009135
05:00+24св447562 0.0 1009146
08:00+24св227088 0.5 1010119
11:00+23зюз337923 1.3 1011155
14:00+25з33745 1.4 1011317
17:00+25з56792 0.0 1010256
20:00+25з45820 0.0 1009137
21 августа, вс
вс2123:00+25всв12791 0.0 101029
02:00+24св33685 0.0 101067
05:00+24св44670 0.0 1009130
08:00+24св46670 0.0 1010207
11:00+26зсз23640 0.0 1010107
14:00+26зюз44651 0.0 1008128
17:00+28с45580 0.0 100786
20:00+26св56610 0.0 100895